Time,TemperatureF,DewpointF,PressureIn,WindDirection,WindDirectionDegrees,WindSpeedMPH,WindSpeedGustMPH,Humidity,HourlyPrecipIn,Conditions,Clouds,dailyrainin,SoftwareType,DateUTC
2013-08-14 00:02:00,65.0,54.2,30.26,North,0,0.0,0.0,68,0.00,,,0.00,WUHU216HW,2013-08-14 07:02:00,
2013-08-14 00:07:00,65.0,54.2,30.26,North,0,0.0,0.0,68,0.00,,,0.00,WUHU216HW,2013-08-14 07:07:00,
2013-08-14 00:12:00,64.8,54.5,30.26,North,0,0.0,0.0,69,0.00,,,0.00,WUHU216HW,2013-08-14 07:12:00,
2013-08-14 00:17:00,64.6,54.3,30.26,North,0,0.0,0.0,69,0.00,,,0.00,WUHU216HW,2013-08-14 07:17:00,
2013-08-14 00:22:00,64.4,54.5,30.26,North,0,0.0,0.0,70,0.00,,,0.00,WUHU216HW,2013-08-14 07:22:00,
2013-08-14 00:27:00,64.4,54.5,30.27,North,0,0.0,0.0,70,0.00,,,0.00,WUHU216HW,2013-08-14 07:27:00,
2013-08-14 00:32:00,64.3,54.4,30.26,North,0,0.0,0.0,70,0.00,,,0.00,WUHU216HW,2013-08-14 07:32:00,
2013-08-14 00:37:00,64.3,54.4,30.27,North,0,0.0,0.0,70,0.00,,,0.00,WUHU216HW,2013-08-14 07:37:00,
2013-08-14 00:42:00,64.1,54.2,30.26,North,0,0.0,0.0,70,0.00,,,0.00,WUHU216HW,2013-08-14 07:42:00,
2013-08-14 00:47:00,63.9,54.0,30.27,North,0,0.0,0.0,70,0.00,,,0.00,WUHU216HW,2013-08-14 07:47:00,
2013-08-14 00:52:00,63.7,54.2,30.27,North,0,0.0,0.0,71,0.00,,,0.00,WUHU216HW,2013-08-14 07:52:00,
2013-08-14 00:57:00,63.7,54.2,30.27,North,0,0.0,0.0,71,0.00,,,0.00,WUHU216HW,2013-08-14 07:57:00,
2013-08-14 01:02:00,63.5,54.0,30.27,North,0,0.0,0.0,71,0.00,,,0.00,WUHU216HW,2013-08-14 08:02:00,
2013-08-14 01:07:00,63.5,54.0,30.27,North,0,0.0,0.0,71,0.00,,,0.00,WUHU216HW,2013-08-14 08:07:00,
2013-08-14 01:12:00,63.4,53.8,30.26,North,0,0.0,0.0,71,0.00,,,0.00,WUHU216HW,2013-08-14 08:12:00,
2013-08-14 01:17:00,63.4,54.2,30.26,North,0,0.0,0.0,72,0.00,,,0.00,WUHU216HW,2013-08-14 08:17:00,
2013-08-14 01:22:00,63.2,54.0,30.26,North,0,0.0,0.0,72,0.00,,,0.00,WUHU216HW,2013-08-14 08:22:00,
2013-08-14 01:27:00,63.2,54.0,30.26,North,0,0.0,0.0,72,0.00,,,0.00,WUHU216HW,2013-08-14 08:27:00,
2013-08-14 01:32:00,63.0,53.8,30.26,North,0,0.0,0.0,72,0.00,,,0.00,WUHU216HW,2013-08-14 08:32:00,
2013-08-14 01:37:00,63.0,53.8,30.26,North,0,0.0,0.0,72,0.00,,,0.00,WUHU216HW,2013-08-14 08:37:00,
2013-08-14 01:42:00,63.2,54.0,30.26,North,0,0.0,0.0,72,0.00,,,0.00,WUHU216HW,2013-08-14 08:42:00,
2013-08-14 01:46:00,63.2,54.0,30.25,North,0,0.0,0.0,72,0.00,,,0.00,WUHU216HW,2013-08-14 08:46:00,
2013-08-14 01:51:00,63.2,54.0,30.25,North,0,0.0,0.0,72,0.00,,,0.00,WUHU216HW,2013-08-14 08:51:00,
2013-08-14 01:56:00,63.0,53.8,30.26,North,0,0.0,0.0,72,0.00,,,0.00,WUHU216HW,2013-08-14 08:56:00,
2013-08-14 02:01:00,63.0,53.8,30.26,North,0,0.0,0.0,72,0.00,,,0.00,WUHU216HW,2013-08-14 09:01:00,
2013-08-14 02:06:00,62.8,54.0,30.26,North,0,0.0,0.0,73,0.00,,,0.00,WUHU216HW,2013-08-14 09:06:00,
2013-08-14 02:11:00,62.6,53.5,30.25,North,0,0.0,0.0,72,0.00,,,0.00,WUHU216HW,2013-08-14 09:11:00,
2013-08-14 02:16:00,62.3,53.5,30.26,North,0,0.0,0.0,73,0.00,,,0.00,WUHU216HW,2013-08-14 09:16:00,
2013-08-14 02:21:00,62.3,53.5,30.26,North,0,0.0,0.0,73,0.00,,,0.00,WUHU216HW,2013-08-14 09:21:00,
2013-08-14 02:26:00,62.3,53.5,30.26,North,0,0.0,0.0,73,0.00,,,0.00,WUHU216HW,2013-08-14 09:26:00,
2013-08-14 02:31:00,61.9,53.2,30.26,North,0,0.0,0.0,73,0.00,,,0.00,WUHU216HW,2013-08-14 09:31:00,
2013-08-14 02:36:00,61.9,53.2,30.26,North,0,0.0,0.0,73,0.00,,,0.00,WUHU216HW,2013-08-14 09:36:00,
2013-08-14 02:41:00,61.9,53.2,30.26,North,0,0.0,0.0,73,0.00,,,0.00,WUHU216HW,2013-08-14 09:41:00,
2013-08-14 02:46:00,61.9,53.2,30.26,North,0,0.0,0.0,73,0.00,,,0.00,WUHU216HW,2013-08-14 09:46:00,
2013-08-14 02:51:00,61.9,53.6,30.25,North,0,0.0,0.0,74,0.00,,,0.00,WUHU216HW,2013-08-14 09:51:00,
2013-08-14 02:56:00,61.9,53.6,30.25,North,0,0.0,0.0,74,0.00,,,0.00,WUHU216HW,2013-08-14 09:56:00,
2013-08-14 03:01:00,61.7,53.4,30.25,North,0,0.0,0.0,74,0.00,,,0.00,WUHU216HW,2013-08-14 10:01:00,
2013-08-14 03:06:00,61.7,53.4,30.25,North,0,0.0,0.0,74,0.00,,,0.00,WUHU216HW,2013-08-14 10:06:00,
2013-08-14 03:11:00,61.6,53.2,30.26,North,0,0.0,0.0,74,0.00,,,0.00,WUHU216HW,2013-08-14 10:11:00,
2013-08-14 03:16:00,61.6,53.6,30.26,North,0,0.0,0.0,75,0.00,,,0.00,WUHU216HW,2013-08-14 10:16:00,
2013-08-14 03:21:00,61.6,53.6,30.26,North,0,0.0,0.0,75,0.00,,,0.00,WUHU216HW,2013-08-14 10:21:00,
2013-08-14 03:26:00,61.4,53.4,30.26,North,0,0.0,0.0,75,0.00,,,0.00,WUHU216HW,2013-08-14 10:26:00,
2013-08-14 03:31:00,61.2,53.3,30.26,North,0,0.0,0.0,75,0.00,,,0.00,WUHU216HW,2013-08-14 10:31:00,
2013-08-14 03:36:00,61.2,53.3,30.26,North,0,0.0,0.0,75,0.00,,,0.00,WUHU216HW,2013-08-14 10:36:00,
2013-08-14 03:41:00,60.8,53.3,30.26,North,0,0.0,0.0,76,0.00,,,0.00,WUHU216HW,2013-08-14 10:41:00,
2013-08-14 03:46:00,60.7,53.1,30.26,North,0,0.0,0.0,76,0.00,,,0.00,WUHU216HW,2013-08-14 10:46:00,
2013-08-14 03:51:00,60.7,53.5,30.26,North,0,0.0,0.0,77,0.00,,,0.00,WUHU216HW,2013-08-14 10:51:00,
2013-08-14 03:56:00,60.5,52.9,30.26,North,0,0.0,0.0,76,0.00,,,0.00,WUHU216HW,2013-08-14 10:56:00,
2013-08-14 04:01:00,60.5,53.3,30.26,North,0,0.0,0.0,77,0.00,,,0.00,WUHU216HW,2013-08-14 11:01:00,
2013-08-14 04:06:00,60.3,53.5,30.26,North,0,0.0,0.0,78,0.00,,,0.00,WUHU216HW,2013-08-14 11:06:00,
2013-08-14 04:11:00,60.3,53.5,30.26,North,0,0.0,0.0,78,0.00,,,0.00,WUHU216HW,2013-08-14 11:11:00,
2013-08-14 04:16:00,60.3,53.5,30.26,North,0,0.0,0.0,78,0.00,,,0.00,WUHU216HW,2013-08-14 11:16:00,
2013-08-14 04:21:00,60.3,53.1,30.25,North,0,0.0,0.0,77,0.00,,,0.00,WUHU216HW,2013-08-14 11:21:00,
2013-08-14 04:26:00,60.3,53.1,30.25,North,0,0.0,0.0,77,0.00,,,0.00,WUHU216HW,2013-08-14 11:26:00,
2013-08-14 04:31:00,60.3,53.5,30.25,North,0,0.0,0.0,78,0.00,,,0.00,WUHU216HW,2013-08-14 11:31:00,
2013-08-14 04:36:00,60.3,53.5,30.26,North,0,0.0,0.0,78,0.00,,,0.00,WUHU216HW,2013-08-14 11:36:00,
2013-08-14 04:41:00,60.1,53.3,30.25,North,0,0.0,0.0,78,0.00,,,0.00,WUHU216HW,2013-08-14 11:41:00,
2013-08-14 04:46:00,60.1,53.3,30.25,North,0,0.0,0.0,78,0.00,,,0.00,WUHU216HW,2013-08-14 11:46:00,
2013-08-14 04:51:00,60.1,53.3,30.25,North,0,0.0,0.0,78,0.00,,,0.00,WUHU216HW,2013-08-14 11:51:00,
2013-08-14 04:56:00,60.1,53.6,30.25,North,0,0.0,0.0,79,0.00,,,0.00,WUHU216HW,2013-08-14 11:56:00,
2013-08-14 05:01:00,60.1,53.6,30.25,North,0,0.0,0.0,79,0.00,,,0.00,WUHU216HW,2013-08-14 12:01:00,
2013-08-14 05:06:00,59.9,53.5,30.25,North,0,0.0,0.0,79,0.00,,,0.00,WUHU216HW,2013-08-14 12:06:00,
2013-08-14 05:11:00,59.8,53.3,30.25,North,0,0.0,0.0,79,0.00,,,0.00,WUHU216HW,2013-08-14 12:11:00,
2013-08-14 05:16:00,59.8,53.3,30.25,North,0,0.0,0.0,79,0.00,,,0.00,WUHU216HW,2013-08-14 12:16:00,
2013-08-14 05:21:00,59.8,53.3,30.25,North,0,0.0,0.0,79,0.00,,,0.00,WUHU216HW,2013-08-14 12:21:00,
2013-08-14 05:26:00,59.8,53.3,30.25,North,0,0.0,0.0,79,0.00,,,0.00,WUHU216HW,2013-08-14 12:26:00,
2013-08-14 05:31:00,59.8,53.3,30.25,North,0,0.0,0.0,79,0.00,,,0.00,WUHU216HW,2013-08-14 12:31:00,
2013-08-14 05:36:00,59.8,53.3,30.25,North,0,0.0,0.0,79,0.00,,,0.00,WUHU216HW,2013-08-14 12:36:00,
2013-08-14 05:41:00,59.8,53.3,30.25,North,0,0.0,0.0,79,0.00,,,0.00,WUHU216HW,2013-08-14 12:41:00,
2013-08-14 05:46:00,59.8,53.3,30.25,North,0,0.0,0.0,79,0.00,,,0.00,WUHU216HW,2013-08-14 12:46:00,
2013-08-14 05:51:00,59.8,53.3,30.25,North,0,0.0,0.0,79,0.00,,,0.00,WUHU216HW,2013-08-14 12:51:00,
2013-08-14 05:56:00,59.6,53.5,30.25,North,0,0.0,0.0,80,0.00,,,0.00,WUHU216HW,2013-08-14 12:56:00,
2013-08-14 06:01:00,59.6,53.5,30.25,North,0,0.0,0.0,80,0.00,,,0.00,WUHU216HW,2013-08-14 13:01:00,
2013-08-14 06:06:00,59.4,53.7,30.26,North,0,0.0,0.0,81,0.00,,,0.00,WUHU216HW,2013-08-14 13:06:00,
2013-08-14 06:11:00,59.4,53.7,30.26,North,0,0.0,0.0,81,0.00,,,0.00,WUHU216HW,2013-08-14 13:11:00,
2013-08-14 06:16:00,59.2,53.7,30.26,North,0,0.0,0.0,82,0.00,,,0.00,WUHU216HW,2013-08-14 13:16:00,
2013-08-14 06:21:00,59.4,53.7,30.26,North,0,0.0,0.0,81,0.00,,,0.00,WUHU216HW,2013-08-14 13:21:00,
2013-08-14 06:26:00,59.4,53.7,30.26,North,0,0.0,0.0,81,0.00,,,0.00,WUHU216HW,2013-08-14 13:26:00,
2013-08-14 06:31:00,59.4,53.7,30.26,North,0,0.0,0.0,81,0.00,,,0.00,WUHU216HW,2013-08-14 13:31:00,
2013-08-14 06:36:00,59.4,53.7,30.25,North,0,0.0,0.0,81,0.00,,,0.00,WUHU216HW,2013-08-14 13:36:00,
2013-08-14 06:41:00,59.8,54.0,30.25,North,0,0.0,0.0,81,0.00,,,0.00,WUHU216HW,2013-08-14 13:41:00,
2013-08-14 06:46:00,59.8,54.0,30.25,North,0,0.0,0.0,81,0.00,,,0.00,WUHU216HW,2013-08-14 13:46:00,
2013-08-14 06:51:00,59.9,54.2,30.25,North,0,0.0,0.0,81,0.00,,,0.00,WUHU216HW,2013-08-14 13:51:00,
2013-08-14 06:56:00,59.9,54.2,30.25,North,0,0.0,0.0,81,0.00,,,0.00,WUHU216HW,2013-08-14 13:56:00,
2013-08-14 07:01:00,59.8,53.6,30.25,North,0,0.0,0.0,80,0.00,,,0.00,WUHU216HW,2013-08-14 14:01:00,
2013-08-14 07:06:00,59.8,54.0,30.25,North,0,0.0,0.0,81,0.00,,,0.00,WUHU216HW,2013-08-14 14:06:00,
2013-08-14 07:11:00,59.8,54.0,30.25,North,0,0.0,0.0,81,0.00,,,0.00,WUHU216HW,2013-08-14 14:11:00,
2013-08-14 07:16:00,59.6,53.8,30.25,North,0,0.0,0.0,81,0.00,,,0.00,WUHU216HW,2013-08-14 14:16:00,
2013-08-14 07:21:00,59.8,54.0,30.25,North,0,0.0,0.0,81,0.00,,,0.00,WUHU216HW,2013-08-14 14:21:00,
2013-08-14 07:26:00,59.8,54.0,30.25,North,0,0.0,0.0,81,0.00,,,0.00,WUHU216HW,2013-08-14 14:26:00,
2013-08-14 07:31:00,59.8,54.0,30.25,North,0,0.0,0.0,81,0.00,,,0.00,WUHU216HW,2013-08-14 14:31:00,
2013-08-14 07:36:00,59.8,54.0,30.25,North,0,0.0,0.0,81,0.00,,,0.00,WUHU216HW,2013-08-14 14:36:00,
2013-08-14 07:41:00,59.9,54.2,30.25,North,0,0.0,0.0,81,0.00,,,0.00,WUHU216HW,2013-08-14 14:41:00,
2013-08-14 07:46:00,60.1,54.4,30.26,North,0,0.0,0.0,81,0.00,,,0.00,WUHU216HW,2013-08-14 14:46:00,
2013-08-14 07:51:00,60.1,54.4,30.26,North,0,0.0,0.0,81,0.00,,,0.00,WUHU216HW,2013-08-14 14:51:00,
2013-08-14 07:56:00,60.5,54.7,30.26,North,0,0.0,0.0,81,0.00,,,0.00,WUHU216HW,2013-08-14 14:56:00,
2013-08-14 08:01:00,60.8,55.4,30.26,North,0,0.0,0.0,82,0.00,,,0.00,WUHU216HW,2013-08-14 15:01:00,
2013-08-14 08:06:00,61.0,55.5,30.26,North,0,0.0,0.0,82,0.00,,,0.00,WUHU216HW,2013-08-14 15:06:00,
2013-08-14 08:11:00,61.7,55.9,30.26,NNW,338,0.0,0.0,81,0.00,,,0.00,WUHU216HW,2013-08-14 15:11:00,
2013-08-14 08:16:00,62.1,56.2,30.26,NNW,338,0.0,0.0,81,0.00,,,0.00,WUHU216HW,2013-08-14 15:16:00,
2013-08-14 08:21:00,62.6,56.7,30.26,NNW,338,0.0,0.0,81,0.00,,,0.00,WUHU216HW,2013-08-14 15:21:00,
2013-08-14 08:26:00,62.8,56.9,30.26,NNW,338,0.0,0.0,81,0.00,,,0.00,WUHU216HW,2013-08-14 15:26:00,
2013-08-14 08:31:00,63.4,57.1,30.26,NNW,338,0.0,0.0,80,0.00,,,0.00,WUHU216HW,2013-08-14 15:31:00,
2013-08-14 08:36:00,63.4,57.1,30.26,NNW,338,0.0,0.0,80,0.00,,,0.00,WUHU216HW,2013-08-14 15:36:00,
2013-08-14 08:41:00,63.9,57.6,30.26,NNW,338,0.0,0.0,80,0.00,,,0.00,WUHU216HW,2013-08-14 15:41:00,
2013-08-14 08:46:00,64.1,57.8,30.26,NNW,338,0.0,0.0,80,0.00,,,0.00,WUHU216HW,2013-08-14 15:46:00,
2013-08-14 08:51:00,64.4,58.1,30.26,NW,315,0.0,0.0,80,0.00,,,0.00,WUHU216HW,2013-08-14 15:51:00,
2013-08-14 08:56:00,65.0,58.3,30.25,WSW,248,0.4,0.4,79,0.00,,,0.00,WUHU216HW,2013-08-14 15:56:00,
2013-08-14 09:01:00,65.0,58.3,30.25,WSW,248,0.4,0.4,79,0.00,,,0.00,WUHU216HW,2013-08-14 16:01:00,
2013-08-14 09:07:00,65.5,58.5,30.25,WSW,248,0.2,0.2,78,0.00,,,0.00,WUHU216HW,2013-08-14 16:07:00,
2013-08-14 09:12:00,65.9,58.9,30.25,WSW,248,0.0,0.2,78,0.00,,,0.00,WUHU216HW,2013-08-14 16:12:00,
2013-08-14 09:17:00,65.9,58.9,30.25,WSW,248,0.0,0.0,78,0.00,,,0.00,WUHU216HW,2013-08-14 16:17:00,
2013-08-14 09:22:00,66.1,58.6,30.25,WSW,248,0.0,0.0,77,0.00,,,0.00,WUHU216HW,2013-08-14 16:22:00,
2013-08-14 09:27:00,66.2,58.8,30.25,WSW,248,0.0,0.0,77,0.00,,,0.00,WUHU216HW,2013-08-14 16:27:00,
2013-08-14 09:32:00,66.4,59.0,30.25,WSW,248,0.0,0.0,77,0.00,,,0.00,WUHU216HW,2013-08-14 16:32:00,
2013-08-14 09:37:00,66.4,59.0,30.25,WSW,248,0.0,0.0,77,0.00,,,0.00,WUHU216HW,2013-08-14 16:37:00,
2013-08-14 09:42:00,66.6,58.8,30.25,SSW,203,1.1,1.1,76,0.00,,,0.00,WUHU216HW,2013-08-14 16:42:00,
2013-08-14 09:47:00,67.0,58.8,30.25,SSW,203,0.0,1.1,75,0.00,,,0.00,WUHU216HW,2013-08-14 16:47:00,
2013-08-14 09:52:00,67.3,58.8,30.25,SSW,203,0.4,0.4,74,0.00,,,0.00,WUHU216HW,2013-08-14 16:52:00,
2013-08-14 09:57:00,67.5,59.0,30.25,SSW,203,1.1,1.1,74,0.00,,,0.00,WUHU216HW,2013-08-14 16:57:00,
2013-08-14 10:02:00,67.7,59.1,30.24,SW,225,0.0,1.1,74,0.00,,,0.00,WUHU216HW,2013-08-14 17:02:00,
2013-08-14 10:07:00,68.0,59.1,30.24,SW,225,0.7,1.1,73,0.00,,,0.00,WUHU216HW,2013-08-14 17:07:00,
2013-08-14 10:12:00,68.6,59.2,30.24,SW,225,0.2,1.1,72,0.00,,,0.00,WUHU216HW,2013-08-14 17:12:00,
2013-08-14 10:17:00,68.8,59.4,30.24,South,180,0.4,1.3,72,0.00,,,0.00,WUHU216HW,2013-08-14 17:17:00,
2013-08-14 10:23:00,68.9,59.5,30.25,SW,225,0.0,1.3,72,0.00,,,0.00,WUHU216HW,2013-08-14 17:23:00,
2013-08-14 10:28:00,69.3,59.5,30.25,SSW,203,0.4,1.1,71,0.00,,,0.00,WUHU216HW,2013-08-14 17:28:00,
2013-08-14 10:33:00,69.8,59.6,30.25,SSE,158,1.1,2.2,70,0.00,,,0.00,WUHU216HW,2013-08-14 17:33:00,
2013-08-14 10:38:00,70.2,59.9,30.25,SSW,203,0.4,2.2,70,0.00,,,0.00,WUHU216HW,2013-08-14 17:38:00,
2013-08-14 10:43:00,70.4,59.7,30.25,SW,225,1.8,1.8,69,0.00,,,0.00,WUHU216HW,2013-08-14 17:43:00,
2013-08-14 10:48:00,70.6,59.5,30.24,WSW,248,2.0,2.5,68,0.00,,,0.00,WUHU216HW,2013-08-14 17:48:00,
2013-08-14 10:53:00,70.9,59.9,30.24,SW,225,0.4,2.5,68,0.00,,,0.00,WUHU216HW,2013-08-14 17:53:00,
2013-08-14 10:58:00,71.1,59.6,30.25,SW,225,0.4,2.2,67,0.00,,,0.00,WUHU216HW,2013-08-14 17:58:00,
2013-08-14 11:03:00,71.3,59.8,30.25,SSW,203,2.7,2.7,67,0.00,,,0.00,WUHU216HW,2013-08-14 18:03:00,
2013-08-14 11:08:00,71.6,59.7,30.24,WSW,248,2.0,2.7,66,0.00,,,0.00,WUHU216HW,2013-08-14 18:08:00,
2013-08-14 11:13:00,71.6,59.7,30.24,WSW,248,0.0,2.5,66,0.00,,,0.00,WUHU216HW,2013-08-14 18:13:00,
2013-08-14 11:18:00,71.8,59.9,30.24,WSW,248,0.0,2.0,66,0.00,,,0.00,WUHU216HW,2013-08-14 18:18:00,
2013-08-14 11:24:00,72.2,60.2,30.24,South,180,0.0,1.1,66,0.00,,,0.00,WUHU216HW,2013-08-14 18:24:00,
2013-08-14 11:29:00,72.4,60.3,30.24,SSE,158,0.4,1.1,66,0.00,,,0.00,WUHU216HW,2013-08-14 18:29:00,
2013-08-14 11:34:00,72.7,59.8,30.24,SSE,158,1.6,1.6,64,0.00,,,0.00,WUHU216HW,2013-08-14 18:34:00,
2013-08-14 11:40:00,72.9,59.9,30.24,SSE,158,0.4,2.5,64,0.00,,,0.00,WUHU216HW,2013-08-14 18:40:00,
2013-08-14 11:45:00,73.3,59.9,30.24,SSE,158,0.0,2.5,63,0.00,,,0.00,WUHU216HW,2013-08-14 18:45:00,
2013-08-14 11:50:00,73.4,60.0,30.24,SW,225,1.8,1.8,63,0.00,,,0.00,WUHU216HW,2013-08-14 18:50:00,
2013-08-14 11:55:00,73.8,60.0,30.24,WNW,293,0.4,1.8,62,0.00,,,0.00,WUHU216HW,2013-08-14 18:55:00,
2013-08-14 12:00:00,73.8,59.5,30.24,NNE,23,0.0,1.8,61,0.00,,,0.00,WUHU216HW,2013-08-14 19:00:00,
2013-08-14 12:05:00,73.6,59.3,30.24,SW,225,1.8,1.8,61,0.00,,,0.00,WUHU216HW,2013-08-14 19:05:00,
2013-08-14 12:12:00,73.6,59.3,30.24,WSW,248,0.4,1.8,61,0.00,,,0.00,WUHU216HW,2013-08-14 19:12:00,
2013-08-14 12:17:00,73.8,59.5,30.24,SE,135,0.0,1.6,61,0.00,,,0.00,WUHU216HW,2013-08-14 19:17:00,
2013-08-14 12:22:00,74.0,58.7,30.24,WSW,248,2.5,2.7,59,0.00,,,0.00,WUHU216HW,2013-08-14 19:22:00,
2013-08-14 12:27:00,74.0,58.7,30.24,WSW,248,2.5,2.7,59,0.00,,,0.00,WUHU216HW,2013-08-14 19:27:00,
2013-08-14 12:51:00,76.0,59.1,30.24,SSW,203,0.4,0.4,56,0.00,,,0.00,WUHU216HW,2013-08-14 19:51:00,
2013-08-14 12:56:00,76.1,58.8,30.24,SSW,203,1.1,3.4,55,0.00,,,0.00,WUHU216HW,2013-08-14 19:56:00,
2013-08-14 13:02:00,76.3,59.4,30.23,SSE,158,3.4,3.4,56,0.00,,,0.00,WUHU216HW,2013-08-14 20:02:00,
2013-08-14 13:07:00,76.9,60.0,30.23,SSE,158,3.4,3.4,56,0.00,,,0.00,WUHU216HW,2013-08-14 20:07:00,
2013-08-14 13:12:00,77.8,59.8,30.23,WSW,248,2.7,3.4,54,0.00,,,0.00,WUHU216HW,2013-08-14 20:12:00,
2013-08-14 13:17:00,78.1,59.0,30.23,South,180,0.0,3.4,52,0.00,,,0.00,WUHU216HW,2013-08-14 20:17:00,
2013-08-14 13:22:00,77.8,59.8,30.22,SW,225,1.6,2.7,54,0.00,,,0.00,WUHU216HW,2013-08-14 20:22:00,
2013-08-14 13:27:00,78.1,59.6,30.23,South,180,2.2,2.5,53,0.00,,,0.00,WUHU216HW,2013-08-14 20:27:00,
2013-08-14 13:32:00,79.0,59.9,30.23,SSE,158,1.1,2.5,52,0.00,,,0.00,WUHU216HW,2013-08-14 20:32:00,
2013-08-14 13:38:00,79.6,59.9,30.23,WSW,248,1.6,4.0,51,0.00,,,0.00,WUHU216HW,2013-08-14 20:38:00,
2013-08-14 13:43:00,79.6,60.4,30.23,SSW,203,1.8,4.0,52,0.00,,,0.00,WUHU216HW,2013-08-14 20:43:00,
2013-08-14 13:48:00,79.9,59.7,30.23,North,0,0.4,4.0,50,0.00,,,0.00,WUHU216HW,2013-08-14 20:48:00,
2013-08-14 13:53:00,79.9,59.7,30.23,South,180,1.3,4.0,50,0.00,,,0.00,WUHU216HW,2013-08-14 20:53:00,
2013-08-14 13:58:00,80.3,59.9,30.23,South,180,1.3,1.3,50,0.00,,,0.00,WUHU216HW,2013-08-14 20:58:00,
2013-08-14 14:03:00,80.8,59.2,30.23,SW,225,1.8,3.4,48,0.00,,,0.00,WUHU216HW,2013-08-14 21:03:00,
2013-08-14 14:08:00,81.4,59.8,30.23,North,0,1.8,3.4,48,0.00,,,0.00,WUHU216HW,2013-08-14 21:08:00,
2013-08-14 14:13:00,81.7,57.6,30.23,SSW,203,2.5,2.5,44,0.00,,,0.00,WUHU216HW,2013-08-14 21:13:00,
2013-08-14 14:18:00,81.7,58.9,30.23,South,180,1.8,4.0,46,0.00,,,0.00,WUHU216HW,2013-08-14 21:18:00,
2013-08-14 14:23:00,81.7,58.9,30.23,South,180,1.8,4.0,46,0.00,,,0.00,WUHU216HW,2013-08-14 21:23:00,
2013-08-14 14:48:00,82.6,57.8,30.23,South,180,1.6,1.6,43,0.00,,,0.00,WUHU216HW,2013-08-14 21:48:00,
2013-08-14 14:53:00,83.0,57.5,30.23,SW,225,2.9,4.5,42,0.00,,,0.00,WUHU216HW,2013-08-14 21:53:00,
2013-08-14 14:58:00,83.0,56.9,30.22,SSE,158,2.7,4.5,41,0.00,,,0.00,WUHU216HW,2013-08-14 21:58:00,
2013-08-14 15:03:00,83.0,56.9,30.23,SW,225,1.8,4.7,41,0.00,,,0.00,WUHU216HW,2013-08-14 22:03:00,
2013-08-14 15:08:00,83.2,57.7,30.23,SSW,203,1.3,4.7,42,0.00,,,0.00,WUHU216HW,2013-08-14 22:08:00,
2013-08-14 15:13:00,83.2,56.4,30.23,WNW,293,0.4,2.9,40,0.00,,,0.00,WUHU216HW,2013-08-14 22:13:00,
2013-08-14 15:18:00,83.0,56.3,30.23,South,180,2.7,2.9,40,0.00,,,0.00,WUHU216HW,2013-08-14 22:18:00,
2013-08-14 15:23:00,83.3,56.6,30.23,SW,225,2.7,3.4,40,0.00,,,0.00,WUHU216HW,2013-08-14 22:23:00,
2013-08-14 15:28:00,83.9,57.1,30.23,SSE,158,1.8,3.4,40,0.00,,,0.00,WUHU216HW,2013-08-14 22:28:00,
2013-08-14 15:34:00,83.7,57.6,30.24,South,180,1.1,2.7,41,0.00,,,0.00,WUHU216HW,2013-08-14 22:34:00,
2013-08-14 15:39:00,83.3,56.6,30.24,South,180,2.0,2.5,40,0.00,,,0.00,WUHU216HW,2013-08-14 22:39:00,
2013-08-14 15:44:00,82.8,56.2,30.24,WNW,293,1.1,2.5,40,0.00,,,0.00,WUHU216HW,2013-08-14 22:44:00,
2013-08-14 15:49:00,82.3,56.3,30.24,SE,135,1.8,2.5,41,0.00,,,0.00,WUHU216HW,2013-08-14 22:49:00,
2013-08-14 15:54:00,81.9,56.5,30.24,SW,225,2.2,2.5,42,0.00,,,0.00,WUHU216HW,2013-08-14 22:54:00,
2013-08-14 15:59:00,81.7,57.0,30.24,SSE,158,1.8,2.5,43,0.00,,,0.00,WUHU216HW,2013-08-14 22:59:00,
2013-08-14 16:04:00,81.5,56.3,30.24,West,270,0.4,2.5,42,0.00,,,0.00,WUHU216HW,2013-08-14 23:04:00,
2013-08-14 16:09:00,81.0,55.7,30.24,WNW,293,0.2,2.5,42,0.00,,,0.00,WUHU216HW,2013-08-14 23:09:00,
2013-08-14 16:15:00,80.6,56.0,30.24,SW,225,0.2,1.8,43,0.00,,,0.00,WUHU216HW,2013-08-14 23:15:00,
2013-08-14 16:20:00,80.3,55.1,30.24,SW,225,2.9,2.9,42,0.00,,,0.00,WUHU216HW,2013-08-14 23:20:00,
2013-08-14 16:25:00,80.3,55.7,30.24,WSW,248,1.8,2.9,43,0.00,,,0.00,WUHU216HW,2013-08-14 23:25:00,
2013-08-14 16:30:00,79.7,55.8,30.24,WSW,248,0.4,3.4,44,0.00,,,0.00,WUHU216HW,2013-08-14 23:30:00,
2013-08-14 16:35:00,79.7,55.8,30.23,SW,225,0.4,3.4,44,0.00,,,0.00,WUHU216HW,2013-08-14 23:35:00,
2013-08-14 16:40:00,79.7,55.8,30.23,SW,225,0.4,0.4,44,0.00,,,0.00,WUHU216HW,2013-08-14 23:40:00,
2013-08-14 17:00:00,79.0,55.8,30.24,SW,225,0.0,0.0,45,0.00,,,0.00,WUHU216HW,2013-08-15 00:00:00,
2013-08-14 17:05:00,78.8,55.6,30.22,SE,135,0.0,0.4,45,0.00,,,0.00,WUHU216HW,2013-08-15 00:05:00,
2013-08-14 17:10:00,78.7,56.7,30.24,SSW,203,3.1,3.1,47,0.00,,,0.00,WUHU216HW,2013-08-15 00:10:00,
2013-08-14 17:15:00,78.3,57.0,30.24,SE,135,0.2,3.1,48,0.00,,,0.00,WUHU216HW,2013-08-15 00:15:00,
2013-08-14 17:20:00,77.9,56.6,30.24,NNW,338,0.7,3.1,48,0.00,,,0.00,WUHU216HW,2013-08-15 00:20:00,
2013-08-14 17:25:00,77.4,56.2,30.24,SSE,158,0.4,3.1,48,0.00,,,0.00,WUHU216HW,2013-08-15 00:25:00,
2013-08-14 17:30:00,77.0,56.4,30.24,West,270,0.0,4.0,49,0.00,,,0.00,WUHU216HW,2013-08-15 00:30:00,
2013-08-14 17:35:00,76.7,56.2,30.24,South,180,0.0,4.0,49,0.00,,,0.00,WUHU216HW,2013-08-15 00:35:00,
2013-08-14 17:40:00,76.1,55.6,30.24,NW,315,0.0,1.1,49,0.00,,,0.00,WUHU216HW,2013-08-15 00:40:00,
2013-08-14 17:45:00,76.0,56.1,30.25,SE,135,1.3,1.3,50,0.00,,,0.00,WUHU216HW,2013-08-15 00:45:00,
2013-08-14 17:50:00,75.6,56.3,30.25,South,180,3.4,3.4,51,0.00,,,0.00,WUHU216HW,2013-08-15 00:50:00,
2013-08-14 17:55:00,75.6,56.8,30.25,SW,225,3.4,3.4,52,0.00,,,0.00,WUHU216HW,2013-08-15 00:55:00,
2013-08-14 18:00:00,75.6,57.2,30.25,WNW,293,0.4,3.4,53,0.00,,,0.00,WUHU216HW,2013-08-15 01:00:00,
2013-08-14 18:05:00,75.6,57.2,30.25,NNW,338,0.9,3.4,53,0.00,,,0.00,WUHU216HW,2013-08-15 01:05:00,
2013-08-14 18:10:00,75.6,57.2,30.25,SE,135,0.9,1.1,53,0.00,,,0.00,WUHU216HW,2013-08-15 01:10:00,
2013-08-14 18:15:00,75.4,57.6,30.25,NNE,23,0.7,2.5,54,0.00,,,0.00,WUHU216HW,2013-08-15 01:15:00,
2013-08-14 18:20:00,75.2,57.4,30.26,SW,225,4.3,4.3,54,0.00,,,0.00,WUHU216HW,2013-08-15 01:20:00,
2013-08-14 18:25:00,75.2,57.4,30.26,SW,225,4.3,4.3,54,0.00,,,0.00,WUHU216HW,2013-08-15 01:25:00,
2013-08-14 18:47:00,74.9,58.2,30.25,ESE,113,0.0,0.0,56,0.00,,,0.00,WUHU216HW,2013-08-15 01:47:00,
2013-08-14 18:52:00,74.5,58.2,30.25,North,0,0.4,0.4,57,0.00,,,0.00,WUHU216HW,2013-08-15 01:52:00,
2013-08-14 18:57:00,74.2,58.4,30.25,North,0,0.0,0.4,58,0.00,,,0.00,WUHU216HW,2013-08-15 01:57:00,
2013-08-14 19:02:00,73.8,58.5,30.25,North,0,0.0,0.4,59,0.00,,,0.00,WUHU216HW,2013-08-15 02:02:00,
2013-08-14 19:07:00,73.4,58.7,30.25,SSW,203,1.3,1.3,60,0.00,,,0.00,WUHU216HW,2013-08-15 02:07:00,
2013-08-14 19:12:00,73.1,58.3,30.26,SSW,203,0.0,1.8,60,0.00,,,0.00,WUHU216HW,2013-08-15 02:12:00,
2013-08-14 19:17:00,73.1,58.8,30.26,SSE,158,0.4,1.8,61,0.00,,,0.00,WUHU216HW,2013-08-15 02:17:00,
2013-08-14 19:22:00,73.1,58.8,30.26,SSE,158,0.0,0.9,61,0.00,,,0.00,WUHU216HW,2013-08-15 02:22:00,
2013-08-14 19:27:00,72.9,58.7,30.27,SSE,158,1.1,1.1,61,0.00,,,0.00,WUHU216HW,2013-08-15 02:27:00,
2013-08-14 19:32:00,72.7,58.5,30.27,SSW,203,0.4,1.8,61,0.00,,,0.00,WUHU216HW,2013-08-15 02:32:00,
2013-08-14 19:37:00,72.4,58.6,30.27,WSW,248,0.9,1.8,62,0.00,,,0.00,WUHU216HW,2013-08-15 02:37:00,
2013-08-14 19:42:00,72.2,58.4,30.27,NNW,338,1.3,2.5,62,0.00,,,0.00,WUHU216HW,2013-08-15 02:42:00,
2013-08-14 19:47:00,72.0,58.2,30.26,North,0,0.0,2.5,62,0.00,,,0.00,WUHU216HW,2013-08-15 02:47:00,
2013-08-14 19:52:00,71.6,58.3,30.27,North,0,0.0,0.4,63,0.00,,,0.00,WUHU216HW,2013-08-15 02:52:00,
2013-08-14 19:57:00,71.5,58.6,30.27,North,0,0.0,0.0,64,0.00,,,0.00,WUHU216HW,2013-08-15 02:57:00,
2013-08-14 20:02:00,71.3,58.4,30.27,North,0,0.0,0.0,64,0.00,,,0.00,WUHU216HW,2013-08-15 03:02:00,
2013-08-14 20:07:00,71.3,58.4,30.27,SE,135,0.2,0.2,64,0.00,,,0.00,WUHU216HW,2013-08-15 03:07:00,
2013-08-14 20:12:00,70.9,58.5,30.27,South,180,0.2,0.4,65,0.00,,,0.00,WUHU216HW,2013-08-15 03:12:00,
2013-08-14 20:17:00,70.7,58.3,30.27,SSW,203,1.8,2.5,65,0.00,,,0.00,WUHU216HW,2013-08-15 03:17:00,
2013-08-14 20:22:00,70.6,58.2,30.27,SE,135,0.2,2.5,65,0.00,,,0.00,WUHU216HW,2013-08-15 03:22:00,
2013-08-14 20:27:00,70.2,58.2,30.28,SW,225,1.8,2.0,66,0.00,,,0.00,WUHU216HW,2013-08-15 03:27:00,
2013-08-14 20:32:00,70.0,58.5,30.28,SW,225,0.4,1.8,67,0.00,,,0.00,WUHU216HW,2013-08-15 03:32:00,
2013-08-14 20:37:00,70.0,58.5,30.28,SSW,203,1.1,1.1,67,0.00,,,0.00,WUHU216HW,2013-08-15 03:37:00,
2013-08-14 20:42:00,69.8,59.1,30.28,West,270,1.1,1.1,69,0.00,,,0.00,WUHU216HW,2013-08-15 03:42:00,
2013-08-14 20:47:00,69.8,58.8,30.29,South,180,1.1,1.3,68,0.00,,,0.00,WUHU216HW,2013-08-15 03:47:00,
2013-08-14 20:52:00,69.5,58.4,30.29,SSW,203,0.0,1.3,68,0.00,,,0.00,WUHU216HW,2013-08-15 03:52:00,
2013-08-14 20:57:00,69.5,59.2,30.29,WSW,248,1.1,1.3,70,0.00,,,0.00,WUHU216HW,2013-08-15 03:57:00,
2013-08-14 21:01:00,69.3,58.7,30.29,WSW,248,0.4,1.3,69,0.00,,,0.00,WUHU216HW,2013-08-15 04:01:00,
2013-08-14 21:06:00,69.1,59.0,30.29,WSW,248,0.0,1.1,70,0.00,,,0.00,WUHU216HW,2013-08-15 04:06:00,
2013-08-14 21:11:00,69.1,59.0,30.29,WSW,248,0.0,0.0,70,0.00,,,0.00,WUHU216HW,2013-08-15 04:11:00,
2013-08-14 21:16:00,68.9,58.8,30.29,WSW,248,0.0,0.0,70,0.00,,,0.00,WUHU216HW,2013-08-15 04:16:00,
2013-08-14 21:21:00,68.8,59.0,30.29,WSW,248,0.0,0.0,71,0.00,,,0.00,WUHU216HW,2013-08-15 04:21:00,
2013-08-14 21:26:00,68.6,58.9,30.29,WSW,248,0.0,0.0,71,0.00,,,0.00,WUHU216HW,2013-08-15 04:26:00,
2013-08-14 21:31:00,68.4,59.0,30.29,WSW,248,0.0,0.0,72,0.00,,,0.00,WUHU216HW,2013-08-15 04:31:00,
2013-08-14 21:36:00,68.2,59.2,30.28,WSW,248,0.0,0.0,73,0.00,,,0.00,WUHU216HW,2013-08-15 04:36:00,
2013-08-14 21:41:00,68.0,59.1,30.28,WSW,248,0.0,0.0,73,0.00,,,0.00,WUHU216HW,2013-08-15 04:41:00,
2013-08-14 21:46:00,67.9,59.3,30.28,WSW,248,0.0,0.0,74,0.00,,,0.00,WUHU216HW,2013-08-15 04:46:00,
2013-08-14 21:51:00,67.9,59.3,30.28,WSW,248,0.0,0.0,74,0.00,,,0.00,WUHU216HW,2013-08-15 04:51:00,
2013-08-14 21:56:00,67.9,59.3,30.27,WSW,248,0.0,0.0,74,0.00,,,0.00,WUHU216HW,2013-08-15 04:56:00,
2013-08-14 22:01:00,67.7,59.1,30.27,WSW,248,0.0,0.0,74,0.00,,,0.00,WUHU216HW,2013-08-15 05:01:00,
2013-08-14 22:06:00,67.5,59.3,30.27,WSW,248,0.0,0.0,75,0.00,,,0.00,WUHU216HW,2013-08-15 05:06:00,
2013-08-14 22:11:00,67.3,59.9,30.26,WSW,248,0.0,0.0,77,0.00,,,0.00,WUHU216HW,2013-08-15 05:11:00,
2013-08-14 22:16:00,67.0,59.5,30.26,WSW,248,0.0,0.0,77,0.00,,,0.00,WUHU216HW,2013-08-15 05:16:00,
2013-08-14 22:21:00,66.8,59.3,30.25,West,270,0.0,0.0,77,0.00,,,0.00,WUHU216HW,2013-08-15 05:21:00,
2013-08-14 22:26:00,66.8,59.3,30.25,West,270,0.0,0.0,77,0.00,,,0.00,WUHU216HW,2013-08-15 05:26:00,
2013-08-14 22:51:00,66.2,60.3,30.26,West,270,0.0,0.0,81,0.00,,,0.00,WUHU216HW,2013-08-15 05:51:00,
2013-08-14 22:56:00,66.1,59.8,30.27,West,270,0.0,0.0,80,0.00,,,0.00,WUHU216HW,2013-08-15 05:56:00,
2013-08-14 23:01:00,65.9,59.6,30.26,West,270,0.0,0.0,80,0.00,,,0.00,WUHU216HW,2013-08-15 06:01:00,
2013-08-14 23:06:00,66.1,59.8,30.27,West,270,0.0,0.0,80,0.00,,,0.00,WUHU216HW,2013-08-15 06:06:00,
2013-08-14 23:11:00,66.2,59.9,30.27,West,270,0.0,0.0,80,0.00,,,0.00,WUHU216HW,2013-08-15 06:11:00,
2013-08-14 23:16:00,66.2,59.9,30.26,West,270,0.0,0.0,80,0.00,,,0.00,WUHU216HW,2013-08-15 06:16:00,
2013-08-14 23:21:00,65.9,60.0,30.26,West,270,0.0,0.0,81,0.00,,,0.00,WUHU216HW,2013-08-15 06:21:00,
2013-08-14 23:26:00,65.9,60.0,30.26,West,270,0.0,0.0,81,0.00,,,0.00,WUHU216HW,2013-08-15 06:26:00,
2013-08-14 23:31:00,65.9,60.0,30.25,West,270,0.0,0.0,81,0.00,,,0.00,WUHU216HW,2013-08-15 06:31:00,
2013-08-14 23:36:00,65.7,60.0,30.25,West,270,0.0,0.0,82,0.00,,,0.00,WUHU216HW,2013-08-15 06:36:00,
2013-08-14 23:41:00,65.5,59.9,30.25,West,270,0.0,0.0,82,0.00,,,0.00,WUHU216HW,2013-08-15 06:41:00,
2013-08-14 23:46:00,65.7,60.0,30.26,WSW,248,0.7,0.7,82,0.00,,,0.00,WUHU216HW,2013-08-15 06:46:00,
2013-08-14 23:51:00,65.7,60.0,30.26,WSW,248,0.0,0.7,82,0.00,,,0.00,WUHU216HW,2013-08-15 06:51:00,
2013-08-14 23:56:00,65.7,60.0,30.26,WSW,248,0.0,0.0,82,0.00,,,0.00,WUHU216HW,2013-08-15 06:56:00,